Winston-Salem, NC

4:24 AM EDT on April 21, 2018 (GMT -0400)
Smith Reynolds

Weather History for KINT - May, 2013

Change the Weather History Date:

Friday, May 3, 2013

  Actual Average Record
Temperature  
Mean Temperature 56 °F -  
Max Temperature 66 °F 73 °F 90 °F (2012)
Min Temperature 48 °F 52 °F 31 °F (1981)
Degree Days  
Heating Degree Days 9    
Growing Degree Days 6 (Base 50)    
Moisture  
Dew Point 47 °F    
Average Humidity 73    
Maximum Humidity 100    
Minimum Humidity 50    
Precipitation  
Precipitation 0.00 in - - ()
Sea Level Pressure  
Sea Level Pressure 30.23 in    
Wind  
Wind Speed 7 mph (ENE)    
Max Wind Speed 14 mph    
Max Gust Speed 23 mph    
Visibility 10 miles    
Events      
Averages and records for this station are not official NWS values.
T = Trace of Precipitation, MM = Missing Value Source: NWS Daily Summary

Daily Weather History Graph

Daily Weather History Graph

Search for Another Location

Airport or City:

Astronomy

May. 03, 2013 Rise Set
Actual Time 6:25 AM EDT 8:10 PM EDT
Civil Twilight 5:58 AM EDT 8:38 PM EDT
Nautical Twilight 5:24 AM EDT 9:11 PM EDT
Astronomical Twilight 4:49 AM EDT 9:47 PM EDT
Moon 2:37 AM EDT (5/3) 2:13 PM EDT (5/3)
Length of Visible Light 14h 39m
Length of Day
13h 44m
Last Quarter, 37% of the Moon is Illuminated
May 3
Last Quarter
May 9
New
May 18
First Quarter
May 25
Full
May 31
Last Quarter

Hourly Weather History & Observations

Time (EDT) Temp. Dew Point Humidity Pressure Visibility Wind Dir Wind Speed Gust Speed Precip Events Conditions
12:54 AM 54.0 °F 52.0 °F 93% 30.26 in 10.0 mi NNE 4.6 mph - N/A   Clear
1:54 AM 53.1 °F 52.0 °F 96% 30.25 in 8.0 mi NE 4.6 mph - N/A   Clear
2:54 AM 53.1 °F 51.1 °F 93% 30.23 in 9.0 mi ENE 5.8 mph - N/A   Partly Cloudy
3:54 AM 52.0 °F 50.0 °F 93% 30.22 in 10.0 mi NE 3.5 mph - N/A   Clear
4:54 AM 50.0 °F 48.0 °F 93% 30.24 in 10.0 mi NE 4.6 mph - N/A   Clear
5:54 AM 48.9 °F 46.9 °F 93% 30.24 in 10.0 mi NE 4.6 mph - N/A   Clear
6:54 AM 48.9 °F 48.0 °F 97% 30.25 in 8.0 mi NNE 5.8 mph - N/A   Clear
7:01 AM 48.2 °F 48.2 °F 100% 30.26 in 7.0 mi NNE 5.8 mph - N/A   Scattered Clouds
7:19 AM 50.0 °F 48.2 °F 94% 30.26 in 7.0 mi NNE 4.6 mph - N/A   Mostly Cloudy
7:54 AM 50.0 °F 48.0 °F 93% 30.26 in 9.0 mi NE 6.9 mph - N/A   Scattered Clouds
8:54 AM 55.0 °F 48.9 °F 80% 30.27 in 10.0 mi NE 10.4 mph 17.3 mph N/A   Clear
9:54 AM 55.9 °F 46.9 °F 72% 30.27 in 10.0 mi NE 12.7 mph - N/A   Partly Cloudy
10:44 AM 57.2 °F 48.2 °F 72% 30.28 in 10.0 mi NE 9.2 mph 18.4 mph N/A   Mostly Cloudy
10:54 AM 59.0 °F 48.0 °F 67% 30.27 in 10.0 mi ENE 12.7 mph 20.7 mph N/A   Mostly Cloudy
11:44 AM 60.8 °F 46.4 °F 59% 30.28 in 10.0 mi ENE 12.7 mph 19.6 mph N/A   Scattered Clouds
11:54 AM 61.0 °F 46.9 °F 60% 30.27 in 10.0 mi NE 11.5 mph 23.0 mph N/A   Partly Cloudy
12:54 PM 63.0 °F 46.9 °F 56% 30.25 in 10.0 mi East 11.5 mph - N/A   Scattered Clouds
1:54 PM 64.0 °F 46.9 °F 54% 30.23 in 10.0 mi ENE 9.2 mph 19.6 mph N/A   Mostly Cloudy
2:54 PM 64.9 °F 46.0 °F 50% 30.21 in 10.0 mi East 13.8 mph 17.3 mph N/A   Scattered Clouds
3:54 PM 64.9 °F 46.9 °F 52% 30.20 in 10.0 mi East 10.4 mph - N/A   Clear
4:54 PM 64.9 °F 46.9 °F 52% 30.19 in 10.0 mi East 6.9 mph - N/A   Partly Cloudy
5:54 PM 64.0 °F 48.0 °F 56% 30.18 in 10.0 mi ENE 11.5 mph 17.3 mph N/A   Scattered Clouds
6:54 PM 63.0 °F 48.9 °F 60% 30.17 in 10.0 mi ENE 8.1 mph - N/A   Mostly Cloudy
7:54 PM 62.1 °F 48.9 °F 62% 30.17 in 10.0 mi ENE 5.8 mph - N/A   Clear
8:54 PM 60.1 °F 45.0 °F 57% 30.18 in 10.0 mi ENE 11.5 mph 17.3 mph N/A   Clear
9:54 PM 59.0 °F 42.1 °F 53% 30.19 in 10.0 mi East 8.1 mph - N/A   Clear
10:54 PM 55.9 °F 43.0 °F 62% 30.19 in 10.0 mi East 6.9 mph - N/A   Clear
11:54 PM 53.1 °F 42.1 °F 66% 30.19 in 10.0 mi East 8.1 mph - N/A   Clear